Wetbulb
55.83 55.81 55.65 55.23 54.44 54.28 54.28 54.45 54.55 54.56 55.18 55.28 55.49 55.74 56.06 56.04 55.65 52.64 48.32 54.16 57.54 62.14 60.31 54.92 55.13 54.79 53.88 49.30 49.35 48.57 44.53 40.91 42.27 43.12 44.67 47.40 46.02 48.50 50.22 48.59 49.84 51.18 51.48 52.92 57.85
55.54 55.53 55.46 54.78 54.21 54.34 54.15 54.08 54.17 54.37 54.76 55.03 55.51 55.93 56.17 55.99 52.51 51.24 57.40 59.02 62.11 61.58 53.22 53.36 50.99 51.78 48.93 46.09 46.29 46.96 42.66 40.67 44.90 45.30 44.01 46.77 46.28 47.71 46.90 47.31 47.39 49.25 52.19 53.46 57.51
55.19 55.31 55.03 54.48 54.47 54.05 53.95 54.04 54.24 54.40 54.78 55.13 55.31 56.04 56.16 55.99 50.64 50.34 60.92 62.06 61.59 56.85 55.58 54.69 51.40 49.73 46.59 47.21 46.06 43.47 42.09 43.53 43.72 46.62 47.05 46.23 46.59 47.63 46.59 45.54 48.19 47.84 50.37 52.14 53.66
55.27 55.15 54.88 54.38 54.30 54.28 54.35 54.61 54.79 54.77 54.77 54.95 54.91 56.16 56.80 52.78 42.67 52.10 61.52 61.80 60.85 57.30 55.00 51.60 50.17 46.97 45.18 44.24 46.09 42.95 44.37 45.63 46.40 47.19 45.93 45.23 46.85 46.11 47.24 47.98 50.57 50.89 51.13 51.29 52.31
55.13 54.95 54.55 54.12 54.65 54.63 54.51 54.81 54.97 54.84 54.88 54.97 56.10 56.83 52.31 47.99 47.50 51.56 61.44 59.04 56.01 55.83 52.36 50.02 48.51 46.78 43.71 44.84 44.92 43.43 44.66 46.34 47.60 47.49 46.54 47.16 45.05 45.45 46.43 49.51 51.01 51.18 51.48 51.34 52.21
54.71 54.28 54.05 53.92 54.74 55.01 55.06 55.00 54.77 54.57 54.75 55.81 57.57 56.36 49.48 45.36 51.60 56.04 58.62 55.26 54.42 54.28 52.26 51.06 48.64 48.64 46.09 44.94 44.29 45.15 45.33 46.09 46.80 46.89 46.19 44.38 45.42 45.05 47.43 50.11 50.17 50.67 50.70 51.52 51.97
55.05 54.11 53.67 53.69 54.55 54.96 55.26 55.19 54.61 54.34 54.86 56.47 56.67 54.28 49.64 48.21 54.27 58.01 57.37 53.47 54.48 54.20 51.00 51.22 51.48 48.48 47.75 44.79 46.96 46.36 42.98 44.95 44.95 45.62 45.46 46.07 44.11 43.38 48.70 50.34 49.48 50.80 51.63 51.36 51.70
55.55 54.10 53.61 53.63 54.41 54.86 55.00 54.61 54.18 54.44 55.18 56.88 56.06 53.68 48.44 54.66 56.18 55.41 56.37 54.47 54.68 54.90 53.55 53.84 52.04 49.05 47.30 47.83 45.72 42.95 42.00 38.63 44.57 45.36 46.22 45.75 40.11 45.85 50.15 49.74 49.44 50.60 51.14 50.95 51.18
55.52 54.69 54.04 54.22 54.59 54.81 54.36 54.05 54.85 54.83 55.83 56.41 54.50 52.79 47.39 57.69 53.38 55.32 55.82 52.49 52.98 52.79 52.66 52.95 50.64 46.67 46.75 42.76 40.49 40.71 36.60 38.13 40.26 45.62 44.82 44.50 41.68 46.38 50.00 49.74 49.06 50.44 51.06 51.13 51.08
55.46 54.52 54.22 54.07 54.32 54.24 53.59 53.91 56.08 56.22 56.53 55.28 54.14 46.74 49.06 47.35 51.32 53.04 54.34 53.49 51.31 50.32 48.30 47.16 46.43 43.97 43.37 41.39 33.90 36.50 37.28 38.86 38.29 42.90 44.11 42.67 42.35 45.98 48.57 48.91 48.94 49.88 50.59 50.93 51.31
55.46 54.54 54.05 54.14 54.07 53.87 51.39 50.71 48.95 47.08 49.20 45.83 45.61 45.30 47.38 51.39 52.26 50.85 52.43 51.23 50.53 47.09 43.04 44.33 41.45 39.12 41.42 42.62 41.98 40.18 38.40 38.02 41.25 44.21 42.71 41.72 42.31 44.72 47.59 48.26 48.18 49.26 50.13 50.73 51.64
55.36 54.48 54.10 54.08 53.93 52.30 50.68 48.62 48.22 49.07 45.21 46.89 48.16 48.54 50.45 51.73 46.76 50.02 51.04 46.32 44.92 42.20 42.46 41.40 38.69 43.38 43.94 42.22 40.28 40.03 38.30 38.24 41.68 43.98 43.11 41.99 41.46 45.06 46.87 47.41 48.56 49.05 50.03 50.74 51.87
54.44 53.95 53.67 53.30 52.96 51.24 50.79 49.66 51.06 49.97 45.97 46.76 48.51 47.97 48.07 49.26 45.45 47.55 50.07 46.03 42.96 40.81 41.72 38.83 41.61 43.33 41.60 40.93 39.37 40.59 38.55 38.74 38.61 42.27 43.96 41.94 40.19 42.46 46.17 47.84 48.98 49.86 51.01 51.55 51.78
54.16 53.62 53.02 52.43 50.48 49.30 48.94 51.52 51.08 50.50 41.47 41.73 43.74 46.12 48.37 47.37 44.30 50.60 50.55 47.19 44.12 40.38 41.75 40.98 43.36 40.86 41.18 39.94 41.17 37.07 42.65 40.96 39.96 38.58 34.56 41.97 32.68 40.86 44.22 45.32 47.36 48.37 49.59 50.25 51.06
53.90 53.42 52.61 51.72 50.92 49.29 50.16 50.90 50.84 51.16 31.80 42.33 43.45 49.59 47.77 44.92 45.41 46.02 50.64 47.19 40.67 40.22 40.64 38.62 40.42 40.40 38.88 40.14 42.63 38.96 42.91 40.78 39.88 38.25 38.00 37.94 34.57 39.62 42.67 42.34 45.51 47.67 48.94 50.29 51.34
53.55 52.89 52.13 50.07 49.57 50.68 50.76 50.67 52.25 41.13 31.53 39.10 43.22 42.87 42.70 44.24 44.06 46.46 46.37 48.05 46.63 42.50 42.40 41.39 45.45 42.96 42.05 43.09 43.00 43.10 40.26 40.06 39.75 37.60 31.10 36.92 35.89 37.85 40.90 42.76 45.04 47.29 48.29 48.60 49.32
52.94 51.68 51.59 50.18 50.19 51.23 51.02 51.59 40.74 35.02 40.63 38.03 39.31 42.21 40.52 40.03 41.33 42.26 41.27 39.73 37.70 34.89 35.03 39.45 39.65 42.93 44.17 40.48 42.04 40.84 36.95 30.00 29.36 29.98 29.76 36.72 35.08 38.03 43.48 45.86 46.51 46.96 48.51 48.63 49.76
51.61 49.82 50.74 52.93 52.42 51.45 49.80 44.38 33.77 36.12 37.32 41.92 41.44 41.68 37.80 40.29 40.36 40.42 38.84 36.66 40.68 40.62 36.64 32.63 30.11 39.29 42.96 40.04 37.30 37.90 36.27 30.88 23.54 26.67 30.66 36.65 31.35 38.14 45.20 47.44 47.92 48.66 48.61 49.47 50.66
49.37 50.72 52.15 52.44 51.09 50.00 46.92 37.36 35.98 37.66 40.62 39.88 40.88 36.19 36.75 39.06 38.75 38.19 37.58 36.83 39.70 42.85 34.44 33.30 32.58 41.54 41.77 42.62 41.37 37.24 34.63 39.45 32.38 33.47 28.31 33.50 37.25 42.02 45.21 45.74 47.08 47.26 49.42 49.91 50.94
46.74 47.84 50.67 51.28 49.96 49.81 43.03 36.55 38.71 41.66 42.87 41.67 35.51 37.74 34.46 36.86 35.79 36.06 36.16 40.19 40.08 44.10 43.70 38.36 31.25 38.76 40.49 42.30 42.35 39.99 41.38 33.21 34.91 25.94 24.44 31.72 33.34 34.86 40.70 42.91 45.81 46.37 47.80 49.33 50.33
47.39 47.92 51.61 50.05 50.75 46.32 38.38 38.21 40.07 44.10 44.22 40.25 38.21 37.10 37.20 35.01 35.92 35.07 35.83 39.93 42.16 42.15 43.59 41.05 36.86 35.22 39.55 36.85 36.47 36.98 35.37 36.80 36.19 34.33 27.91 26.92 32.72 42.28 42.51 44.20 45.29 46.73 48.06 49.05 49.71
45.49 44.88 51.74 49.10 43.24 39.83 39.02 39.08 41.28 42.73 44.57 42.00 40.45 38.69 36.61 36.31 35.83 35.56 35.18 39.06 43.97 42.93 37.51 40.93 36.71 30.71 33.82 40.72 42.10 39.50 36.88 37.18 31.09 30.70 33.05 32.37 31.42 44.02 44.83 45.72 46.45 46.59 47.65 48.55 49.66
43.24 43.49 50.98 50.19 39.13 37.75 39.27 38.85 40.88 41.37 41.46 40.29 38.99 39.56 39.73 37.25 33.63 36.34 37.97 42.50 43.09 41.18 38.60 40.48 34.65 29.83 32.34 36.53 39.05 36.41 37.59 37.43 36.57 35.29 31.39 28.56 32.23 44.61 45.30 45.44 46.23 45.86 47.46 48.21 49.23
44.63 41.12 45.25 43.85 41.80 39.55 37.43 37.61 37.87 43.00 41.22 40.92 39.72 40.05 37.52 35.54 38.07 35.25 36.69 40.14 42.59 41.61 44.13 42.45 33.49 32.49 28.60 33.13 36.45 34.02 36.44 37.50 34.64 30.90 32.63 33.60 35.64 39.58 42.12 42.57 44.54 45.32 46.98 48.20 48.69
43.74 40.64 41.16 38.49 40.54 39.73 38.96 37.97 36.60 36.52 41.07 41.37 38.70 37.82 35.39 33.43 34.61 34.28 37.23 38.47 40.06 42.17 42.29 40.23 32.94 35.01 35.61 36.58 37.06 36.07 35.37 35.48 33.68 34.60 30.70 34.29 34.34 38.48 41.68 41.40 42.22 44.33 45.27 46.27 47.20
44.46 42.80 42.72 40.99 39.74 38.96 38.37 37.77 36.25 37.99 38.19 38.02 36.63 38.73 38.08 34.82 35.67 33.10 36.09 36.81 35.46 39.94 39.79 39.72 33.10 35.17 32.87 35.75 35.87 33.45 35.52 35.35 34.77 35.24 35.79 36.39 35.26 41.49 41.64 40.40 40.19 41.09 41.31 42.20 44.83
46.55 45.10 43.64 40.25 38.50 38.35 39.31 38.34 38.86 40.33 41.27 41.48 39.92 38.16 36.69 38.19 40.67 41.28 41.26 40.67 39.80 37.34 34.40 33.86 32.41 32.85 29.10 34.36 33.62 29.91 33.56 34.19 34.97 36.11 35.51 31.87 37.22 38.78 36.91 38.21 39.39 39.61 40.82 41.54 43.59
MSLP
1018.69 1018.25 1017.89 1017.54 1017.26 1016.99 1016.68 1016.38 1016.15 1015.93 1015.71 1015.51 1015.32 1015.10 1014.80 1014.50 1013.97 1013.61 1013.10 1013.22 1012.99 1012.76 1012.52 1012.23 1011.99 1011.99 1011.90 1011.85 1012.11 1012.33 1011.94 1011.80 1011.74 1011.47 1010.89 1010.92 1010.23 1009.82 1009.51 1009.11 1008.58 1007.76 1007.27 1007.06 1007.15
1018.72 1018.29 1017.93 1017.57 1017.23 1016.87 1016.65 1016.33 1016.03 1015.77 1015.55 1015.39 1015.21 1015.01 1014.74 1014.47 1013.94 1012.96 1012.94 1012.91 1012.76 1012.58 1012.23 1012.00 1011.87 1011.90 1011.80 1012.12 1012.33 1012.16 1012.10 1012.12 1012.26 1012.10 1011.75 1011.54 1011.01 1010.26 1009.64 1008.97 1008.52 1007.62 1007.11 1007.15 1007.16
1018.69 1018.24 1017.86 1017.54 1017.15 1016.87 1016.61 1016.34 1016.06 1015.78 1015.52 1015.32 1015.11 1014.83 1014.68 1014.41 1013.47 1013.11 1012.79 1012.78 1012.68 1012.51 1012.33 1012.18 1011.99 1011.83 1011.96 1012.33 1012.61 1012.68 1012.26 1012.54 1012.60 1012.52 1012.33 1011.82 1011.31 1010.79 1009.81 1008.73 1008.44 1008.11 1007.38 1007.18 1007.19
1018.59 1018.11 1017.74 1017.45 1017.11 1016.82 1016.58 1016.29 1016.05 1015.77 1015.52 1015.34 1015.05 1014.77 1014.45 1014.24 1013.64 1012.98 1012.88 1012.82 1012.69 1012.40 1012.07 1011.95 1011.87 1011.86 1012.21 1012.34 1012.83 1012.63 1012.73 1012.61 1012.49 1012.44 1012.39 1011.72 1011.42 1010.50 1009.80 1009.03 1008.67 1008.36 1008.18 1007.60 1007.12
1018.51 1017.98 1017.58 1017.25 1016.93 1016.67 1016.41 1016.15 1015.94 1015.69 1015.45 1015.27 1014.95 1014.65 1014.42 1013.66 1013.26 1012.97 1012.87 1012.84 1012.54 1012.36 1012.31 1012.16 1012.04 1012.27 1012.27 1012.58 1012.69 1012.56 1012.65 1012.60 1012.43 1012.20 1012.06 1011.62 1011.02 1010.37 1009.59 1008.85 1008.51 1008.20 1007.89 1007.59 1007.05
1018.42 1017.95 1017.47 1017.08 1016.68 1016.43 1016.18 1015.94 1015.79 1015.61 1015.37 1015.15 1014.78 1014.55 1014.06 1013.26 1013.10 1012.95 1012.82 1012.80 1012.75 1012.61 1012.55 1012.44 1012.53 1012.62 1012.59 1012.63 1012.59 1012.63 1012.61 1012.37 1012.04 1011.73 1011.52 1011.23 1010.61 1010.40 1009.26 1008.73 1008.34 1008.06 1007.74 1007.36 1006.96
1018.28 1017.83 1017.33 1016.90 1016.47 1016.17 1015.99 1015.71 1015.55 1015.39 1015.20 1014.91 1014.64 1014.39 1013.75 1013.57 1013.13 1012.95 1012.92 1012.88 1012.88 1012.75 1012.50 1012.70 1012.69 1012.55 1012.61 1012.31 1012.71 1012.52 1012.26 1011.93 1011.69 1011.53 1011.20 1011.05 1010.01 1009.51 1008.99 1009.02 1008.46 1007.96 1007.65 1007.25 1006.67
1018.15 1017.64 1017.17 1016.70 1016.25 1015.90 1015.67 1015.34 1015.10 1015.08 1015.00 1014.69 1014.49 1014.15 1013.37 1013.09 1012.98 1012.81 1012.76 1012.59 1012.76 1012.79 1012.72 1012.72 1012.60 1012.52 1012.69 1012.78 1012.61 1012.36 1012.39 1011.58 1011.23 1011.20 1010.71 1010.79 1008.72 1009.15 1008.86 1008.71 1008.24 1007.74 1007.23 1006.81 1006.43
1017.94 1017.43 1016.95 1016.45 1016.00 1015.69 1015.52 1015.20 1014.95 1015.05 1014.96 1014.73 1014.43 1013.91 1013.13 1012.78 1012.70 1012.42 1012.50 1012.32 1012.32 1012.52 1012.56 1012.52 1012.49 1012.62 1012.73 1012.53 1012.29 1012.31 1011.68 1011.41 1011.15 1010.97 1010.63 1010.30 1008.51 1008.47 1008.31 1007.95 1007.64 1007.33 1006.90 1006.34 1005.97
1017.78 1017.20 1016.69 1016.28 1015.84 1015.58 1015.41 1015.24 1015.19 1015.08 1014.91 1014.68 1014.52 1014.26 1013.07 1012.86 1012.46 1012.34 1012.62 1012.58 1012.31 1012.37 1012.35 1012.54 1012.66 1012.48 1012.50 1012.17 1011.61 1011.52 1011.35 1011.15 1010.81 1010.56 1010.17 1009.35 1008.14 1007.84 1007.62 1007.21 1006.79 1006.55 1006.44 1005.98 1005.55
1017.74 1017.01 1016.42 1016.00 1015.61 1015.33 1015.15 1015.19 1015.46 1015.10 1014.56 1014.74 1014.52 1013.96 1013.32 1012.74 1012.73 1012.33 1012.48 1012.51 1012.39 1012.46 1012.34 1012.70 1012.47 1011.75 1011.50 1011.51 1011.61 1011.59 1011.38 1010.67 1010.45 1010.29 1009.69 1008.51 1007.29 1006.92 1006.54 1006.18 1005.83 1005.40 1005.39 1005.31 1004.99
1017.69 1016.99 1016.29 1015.77 1015.41 1015.19 1015.04 1015.14 1015.66 1015.69 1014.95 1014.40 1014.15 1013.75 1013.30 1013.04 1012.55 1012.35 1012.53 1012.47 1012.43 1012.10 1012.68 1012.75 1011.69 1011.15 1011.38 1011.53 1011.47 1011.24 1010.89 1010.49 1010.06 1009.94 1009.41 1007.95 1006.24 1005.75 1005.34 1004.64 1004.31 1004.22 1004.20 1004.23 1004.22
1017.64 1016.85 1016.19 1015.62 1015.28 1015.16 1015.33 1015.30 1015.32 1015.26 1014.81 1014.07 1013.59 1013.22 1013.07 1013.07 1012.84 1012.62 1012.53 1012.50 1012.43 1012.26 1012.08 1011.97 1011.13 1011.33 1011.36 1011.05 1010.95 1010.68 1010.62 1010.26 1010.06 1009.68 1009.03 1007.62 1004.98 1004.29 1004.00 1003.89 1003.32 1003.21 1003.48 1003.56 1003.59
1017.50 1016.66 1016.00 1015.51 1015.40 1015.61 1015.25 1015.21 1015.12 1015.04 1014.38 1014.07 1013.30 1013.06 1012.91 1012.90 1012.95 1012.77 1012.71 1012.82 1012.46 1012.43 1012.13 1011.64 1011.14 1011.18 1011.05 1010.86 1010.91 1010.21 1010.52 1010.52 1010.24 1009.66 1008.50 1008.54 1005.18 1004.05 1003.60 1002.76 1002.64 1002.63 1002.90 1003.16 1003.24
1017.36 1016.57 1015.99 1015.46 1015.37 1015.38 1015.32 1015.15 1014.98 1014.96 1014.46 1014.02 1013.25 1012.94 1013.09 1013.13 1013.21 1012.63 1012.82 1012.52 1012.69 1012.72 1013.03 1011.70 1011.53 1011.28 1011.06 1010.75 1010.85 1010.52 1010.78 1010.75 1010.40 1009.58 1008.61 1008.09 1007.33 1003.35 1003.54 1002.25 1001.91 1002.06 1002.37 1002.56 1002.61
1017.38 1016.50 1016.07 1015.76 1015.57 1015.17 1015.22 1014.99 1014.87 1014.77 1014.36 1013.94 1013.53 1013.35 1013.37 1013.31 1013.16 1012.94 1012.96 1013.05 1013.06 1013.06 1012.95 1012.46 1011.96 1011.75 1011.08 1011.00 1011.11 1011.21 1011.23 1010.73 1010.00 1009.58 1008.17 1006.78 1006.62 1003.31 1002.81 1001.93 1001.59 1001.85 1002.25 1002.42 1002.42
1017.10 1016.44 1016.06 1015.74 1015.50 1015.17 1015.16 1014.72 1014.79 1014.45 1014.86 1014.35 1013.95 1013.83 1013.86 1013.49 1013.36 1013.30 1013.28 1013.15 1013.51 1013.50 1013.10 1012.67 1011.96 1011.74 1011.51 1011.22 1011.27 1011.37 1011.59 1010.82 1009.76 1009.34 1007.59 1007.21 1006.11 1003.76 1002.91 1001.75 1001.93 1001.90 1002.08 1002.62 1002.40
1017.03 1016.32 1015.98 1015.44 1015.27 1015.13 1014.76 1014.68 1014.61 1014.99 1014.75 1014.50 1014.25 1014.08 1014.06 1013.96 1013.68 1013.80 1013.71 1013.58 1013.95 1014.27 1013.74 1013.31 1012.24 1012.05 1012.01 1011.87 1011.80 1011.76 1012.17 1011.56 1010.38 1009.21 1007.76 1007.41 1005.14 1003.17 1002.61 1001.91 1002.07 1002.22 1002.39 1002.56 1002.49
1016.81 1016.15 1015.72 1015.30 1015.03 1014.98 1014.62 1014.82 1015.15 1015.22 1015.22 1014.93 1014.40 1014.26 1014.29 1014.42 1014.61 1014.35 1014.07 1014.01 1014.01 1014.30 1014.33 1013.62 1012.93 1012.29 1011.98 1011.66 1012.04 1011.64 1011.89 1011.96 1011.60 1010.33 1008.94 1006.27 1004.73 1003.91 1002.35 1001.93 1002.07 1002.16 1002.24 1002.66 1002.78
1017.67 1016.82 1015.90 1015.40 1015.19 1014.96 1015.07 1015.75 1015.87 1015.66 1015.46 1015.22 1015.02 1014.81 1014.55 1014.56 1014.84 1014.85 1014.33 1014.11 1014.11 1014.32 1014.64 1014.29 1013.07 1011.96 1011.83 1011.82 1011.44 1011.34 1011.78 1011.93 1011.69 1010.22 1007.99 1005.53 1004.29 1002.89 1002.17 1001.80 1001.98 1002.43 1002.69 1002.89 1003.00
1017.72 1016.84 1015.84 1015.51 1015.17 1015.51 1016.35 1016.72 1016.36 1015.96 1015.91 1015.64 1015.34 1015.23 1015.19 1015.37 1015.39 1015.15 1014.63 1014.31 1014.26 1014.54 1014.96 1014.78 1014.43 1012.56 1012.28 1011.32 1010.80 1011.52 1011.65 1011.71 1011.77 1010.87 1008.75 1006.01 1003.63 1003.14 1002.57 1002.38 1002.40 1002.46 1002.98 1003.17 1003.34
1018.79 1017.29 1016.11 1015.44 1016.08 1017.70 1017.77 1017.97 1017.51 1016.49 1016.19 1015.95 1015.81 1015.79 1015.79 1015.92 1015.81 1015.53 1014.85 1014.54 1014.68 1014.76 1014.75 1014.86 1014.72 1013.36 1011.81 1010.72 1010.90 1011.16 1011.09 1011.32 1011.49 1010.56 1009.42 1007.55 1003.80 1003.31 1002.85 1002.99 1003.17 1003.05 1003.00 1003.41 1003.80
1020.03 1018.82 1016.77 1016.15 1017.57 1018.44 1018.61 1018.33 1017.97 1017.19 1016.71 1016.42 1016.25 1016.34 1016.56 1016.54 1016.52 1015.84 1015.07 1014.58 1014.67 1014.88 1015.01 1015.18 1015.01 1013.64 1011.36 1011.30 1011.07 1010.86 1010.83 1011.11 1011.29 1010.87 1008.73 1007.33 1003.83 1003.64 1003.50 1003.29 1003.32 1003.47 1003.54 1003.54 1003.41
1020.52 1019.51 1018.65 1018.68 1019.50 1019.50 1019.35 1018.68 1018.00 1017.45 1017.17 1017.13 1016.77 1016.83 1017.02 1016.90 1016.75 1015.83 1015.02 1014.81 1014.88 1014.93 1015.05 1015.43 1014.74 1014.09 1012.77 1011.13 1011.23 1011.10 1010.73 1010.70 1010.89 1009.94 1007.97 1006.28 1004.37 1004.04 1004.18 1004.27 1004.13 1003.94 1003.88 1003.81 1003.46
1021.17 1021.10 1020.96 1020.02 1019.89 1020.11 1020.03 1019.38 1018.66 1018.05 1017.73 1017.42 1016.85 1016.85 1017.33 1016.98 1016.43 1015.43 1015.19 1014.89 1014.65 1014.43 1014.58 1015.02 1014.32 1013.71 1012.73 1011.88 1010.95 1010.04 1009.70 1009.80 1009.71 1009.10 1008.22 1006.65 1005.80 1005.20 1005.01 1005.14 1005.22 1004.64 1004.24 1003.91 1003.20
1021.71 1021.64 1021.56 1020.77 1020.45 1020.20 1019.93 1019.18 1018.92 1018.44 1018.37 1017.85 1017.68 1017.35 1017.39 1017.03 1016.82 1015.63 1015.32 1015.01 1014.79 1014.36 1014.75 1015.06 1014.34 1013.59 1012.37 1011.00 1010.18 1009.27 1008.99 1008.77 1008.57 1008.26 1007.70 1006.96 1005.49 1005.39 1005.82 1006.11 1005.73 1005.23 1004.67 1004.30 1003.65
1022.32 1022.32 1021.96 1021.10 1020.72 1020.40 1019.56 1019.15 1018.97 1019.18 1018.21 1017.86 1017.74 1017.47 1016.93 1016.38 1016.12 1015.43 1014.84 1014.51 1014.56 1014.72 1014.99 1015.20 1014.69 1013.83 1011.57 1010.70 1009.79 1008.80 1008.93 1008.73 1008.34 1008.15 1007.92 1006.80 1005.19 1006.00 1006.07 1006.09 1005.81 1005.30 1004.89 1003.87 1003.16
Wind_Speed
20 18 17 16 15 13 12 11 12 11 11 11 12 12 14 14 13 0 5 3 2 5 4 0 3 3 2 4 3 1 2 4 5 5 1 9 10 4 6 7 5 7 13 10 9
19 18 16 15 14 12 11 10 9 10 11 11 12 12 12 13 4 9 2 3 1 6 3 6 5 2 4 3 3 1 1 4 0 2 2 6 7 13 7 7 4 10 9 8 6
20 18 17 15 13 12 10 9 9 9 10 11 12 12 11 7 1 5 3 3 3 4 1 1 1 2 5 3 4 2 1 3 4 3 4 7 9 5 10 9 8 8 13 13 8
20 19 17 15 13 11 10 9 9 9 9 9 10 11 11 2 5 3 3 3 5 4 1 5 4 3 3 3 2 2 3 2 4 4 4 9 5 9 12 12 11 14 12 13 14
20 20 18 16 13 11 10 9 9 8 8 8 9 8 2 4 5 3 2 5 3 4 6 5 10 2 4 2 1 2 2 4 8 12 8 10 12 11 11 15 15 11 12 12 16
22 21 19 16 14 12 10 9 8 7 7 7 8 5 1 12 3 5 0 3 3 3 3 4 4 2 4 2 2 1 5 9 7 6 5 4 7 3 9 11 12 12 13 14 14
22 21 19 17 15 14 11 10 8 7 6 5 4 2 3 5 3 3 0 1 0 1 3 2 2 3 2 5 0 4 9 8 5 2 5 3 10 9 8 9 12 15 14 14 15
21 22 19 16 15 14 13 13 9 5 4 4 2 1 4 0 3 5 2 3 3 4 2 3 1 2 2 2 2 6 2 7 8 10 3 5 17 3 11 10 17 16 13 12 15
22 20 19 17 15 13 12 11 2 3 1 1 1 3 3 3 3 2 4 3 3 1 0 2 1 2 2 4 6 1 11 14 9 7 10 6 17 6 17 15 15 14 14 12 13
24 21 19 17 15 12 10 0 5 4 1 1 2 2 1 4 4 3 1 1 1 4 1 1 2 4 3 5 9 16 17 15 15 8 13 18 23 19 16 17 17 16 14 13 12
25 23 20 17 15 9 2 2 1 1 4 3 4 1 4 6 3 3 1 2 1 1 7 1 6 12 15 12 14 13 15 20 18 15 20 20 23 21 19 18 19 18 14 14 14
25 23 20 16 12 4 0 5 2 2 4 1 2 4 4 3 5 9 1 3 1 11 1 6 15 18 12 10 10 13 16 18 14 13 19 21 26 24 22 24 23 21 18 15 14
25 23 19 14 6 1 2 3 3 4 0 3 2 2 3 2 1 7 8 1 3 5 11 15 17 10 14 17 15 16 15 17 22 19 16 18 20 6 9 16 21 19 18 16 14
27 24 18 15 1 1 1 3 6 5 1 4 2 2 6 3 1 2 4 4 3 8 12 11 6 7 8 11 10 17 13 13 13 13 8 8 14 14 14 18 13 16 14 14 14
29 24 15 7 2 0 4 7 3 3 1 4 1 2 4 3 4 1 2 4 10 17 6 10 10 11 15 15 11 11 5 8 15 18 18 13 10 4 5 14 15 10 10 10 12
29 24 9 0 0 1 7 1 1 2 2 2 3 7 7 4 3 5 5 2 5 4 3 8 13 7 7 2 4 3 7 17 12 8 9 12 14 2 5 6 9 6 4 3 3
31 22 4 1 4 6 4 2 1 1 1 1 5 7 7 6 4 4 10 13 5 6 8 13 5 4 2 4 2 11 12 6 4 4 6 3 7 15 13 19 20 15 12 1 4
30 13 1 2 8 4 1 1 1 1 3 3 5 14 5 4 4 6 11 10 2 2 8 5 7 5 2 6 10 16 5 5 7 5 7 7 10 3 11 15 12 11 4 1 3
22 3 2 9 5 1 2 3 1 1 2 6 12 2 2 2 5 6 8 5 3 5 6 11 6 13 22 17 6 4 7 2 5 11 10 7 7 13 14 12 5 7 7 7 5
4 3 3 14 4 2 4 1 2 2 4 2 3 1 7 12 6 11 5 3 3 6 3 5 17 8 1 4 10 13 0 5 4 6 7 6 11 9 12 9 2 5 7 6 4
3 2 4 12 1 6 3 2 4 3 4 3 4 7 6 5 8 8 5 7 4 2 3 7 6 7 11 6 8 5 9 7 4 5 6 10 4 2 7 6 7 6 3 4 7
4 1 6 7 4 2 2 6 5 4 2 3 3 3 3 5 5 6 5 5 3 7 9 3 4 8 19 20 16 13 14 13 6 5 6 8 14 14 15 10 7 12 12 13 11
4 4 4 4 4 3 4 3 3 3 4 4 4 1 2 3 6 6 7 2 10 2 7 2 4 6 9 3 2 4 7 15 15 10 15 13 11 2 8 14 19 21 20 17 16
3 5 3 5 2 3 5 2 5 3 3 3 5 2 2 3 5 9 15 8 2 15 23 12 6 10 13 17 12 13 17 14 13 7 13 18 25 24 20 19 18 19 18 17 16
4 2 2 4 2 4 2 2 4 4 4 5 3 3 1 6 15 9 7 16 15 16 3 3 5 11 16 21 23 26 25 23 20 14 14 18 23 21 22 15 17 19 20 19 18
3 3 0 4 3 3 3 3 3 4 2 7 7 12 9 12 16 24 20 17 10 4 2 1 4 3 9 19 18 21 22 22 22 20 18 20 24 18 9 13 16 19 21 21 21
1 1 1 1 1 2 2 1 8 8 9 10 12 13 17 17 11 17 20 20 18 8 1 4 3 3 7 13 20 12 3 4 4 4 6 15 23 9 14 18 21 22 19 22 23
Wind_Direction
356 354 353 351 350 349 349 345 345 340 338 336 336 337 336 338 327 106 60 60 304 327 295 146 59 89 71 81 57 152 145 160 166 187 208 350 332 327 303 269 287 280 295 321 335
356 356 354 353 350 349 348 342 336 335 332 333 332 332 333 340 342 56 332 299 34 342 32 36 41 113 78 70 52 61 197 165 192 13 330 333 306 316 302 300 256 285 287 319 320
356 355 355 354 350 347 344 337 329 327 328 331 331 328 327 326 65 28 17 86 45 15 42 29 53 50 72 62 32 129 90 162 141 359 338 306 297 301 291 281 298 290 309 312 313
355 353 354 354 350 347 339 330 322 317 319 326 321 321 323 277 81 31 63 39 6 332 55 44 38 66 69 74 19 247 114 165 318 299 283 280 282 277 277 276 288 290 299 297 305
354 353 351 349 346 346 336 323 317 310 309 314 312 319 285 64 65 21 79 9 13 23 36 35 48 56 66 55 42 124 338 290 301 288 268 269 247 256 260 269 282 286 290 282 299
354 353 350 346 341 339 333 322 314 305 298 308 319 316 287 82 340 338 113 360 20 29 40 43 49 31 97 353 330 223 273 291 286 277 263 255 274 242 243 262 290 285 285 279 279
351 352 349 344 337 335 335 327 316 300 296 304 336 359 71 65 340 349 220 335 195 350 357 86 14 340 311 315 46 295 301 312 205 287 295 275 262 224 261 316 296 303 298 288 264
348 351 350 342 335 332 333 327 310 273 270 310 350 277 68 213 271 272 198 261 233 255 260 290 202 92 289 341 303 305 258 311 319 302 237 293 281 286 279 299 296 295 297 296 279
348 348 346 339 333 332 336 334 35 163 218 320 353 358 76 314 289 337 211 262 306 91 157 245 287 25 192 286 288 263 306 308 310 285 293 256 291 286 294 291 287 286 290 294 295
349 346 343 339 332 334 337 360 105 140 39 236 127 212 57 333 311 304 9 259 293 321 162 54 59 240 191 255 306 310 304 296 293 301 283 283 278 284 279 279 279 280 279 275 275
348 345 343 338 336 336 126 162 356 99 40 19 315 282 287 302 304 344 149 141 204 217 269 93 265 263 284 279 282 284 284 286 291 291 292 292 288 286 279 275 268 267 256 261 259
347 347 342 339 340 46 298 72 87 325 321 31 263 276 269 299 343 20 262 267 252 280 248 256 265 273 282 278 263 272 278 285 290 292 296 291 285 285 270 260 261 260 257 242 245
347 346 343 341 336 26 35 97 28 185 314 324 265 343 7 326 26 1 355 320 280 280 281 266 269 282 278 281 275 272 272 287 299 307 290 288 286 271 281 261 261 258 251 251 246
346 346 342 328 133 326 90 359 323 199 78 7 11 42 358 349 143 339 12 346 302 305 303 272 302 269 289 275 276 281 280 296 301 310 307 347 292 285 288 280 274 263 257 250 248
341 343 342 353 116 92 346 326 123 224 55 4 36 17 354 35 300 352 24 318 313 305 272 290 299 303 291 278 285 295 312 297 297 288 290 248 258 313 272 280 294 287 261 252 247
340 342 338 156 153 356 335 16 189 207 55 358 322 338 329 328 260 307 316 339 323 291 250 279 298 274 270 15 55 2 327 304 292 270 254 258 225 317 285 265 303 305 327 359 239
337 338 316 304 335 327 314 146 263 26 10 355 324 326 316 293 285 312 331 330 336 320 328 322 326 294 322 282 338 328 316 296 258 201 260 44 264 252 273 273 292 296 309 305 249
331 329 284 261 318 285 171 107 47 77 304 338 304 309 286 331 295 322 318 330 188 250 308 341 328 357 52 303 307 299 247 265 288 263 297 287 254 249 262 280 297 298 319 101 142
323 346 337 345 349 308 96 67 151 181 314 308 308 254 254 285 308 330 318 292 254 203 331 313 259 301 289 290 240 161 219 249 267 251 274 231 247 270 267 281 0 26 118 102 61
343 335 1 338 351 39 71 111 266 251 337 301 292 274 302 323 313 340 313 226 258 214 216 297 299 294 47 319 239 233 266 225 212 271 270 250 270 265 283 307 291 69 51 57 7
15 29 360 341 360 47 65 308 295 280 316 249 266 285 297 328 310 308 269 288 237 43 230 308 258 273 303 248 258 196 228 218 288 263 281 301 264 206 278 309 308 287 288 329 345
347 55 351 331 49 42 35 330 322 301 337 303 274 274 302 327 294 282 246 239 79 334 306 309 279 277 280 280 278 262 257 238 237 198 231 282 277 270 277 305 322 315 314 320 325
5 302 338 336 60 21 323 294 279 302 335 321 298 26 334 303 329 248 273 268 329 333 320 329 238 293 293 151 141 211 215 228 241 266 248 267 264 201 305 304 310 310 309 311 306
340 343 10 45 45 52 349 315 310 307 285 339 282 258 330 282 297 279 283 306 309 301 294 270 214 228 257 284 293 277 265 248 217 241 261 245 282 285 297 304 305 304 305 296 288
9 46 30 340 28 337 237 283 291 312 343 315 273 236 349 285 305 268 254 293 297 301 225 222 247 238 248 267 270 270 275 274 259 249 257 282 283 288 290 307 304 298 302 297 292
1 343 40 286 279 281 175 212 244 267 251 286 256 299 290 276 272 284 290 297 284 292 312 329 273 279 281 279 274 278 281 275 266 263 254 266 274 283 298 300 303 305 302 297 298
37 116 298 296 242 257 255 274 315 316 294 236 284 296 289 285 288 275 276 275 261 247 263 270 279 282 277 307 303 279 246 355 308 245 270 270 279 312 302 304 306 304 293 287 284